Location: Chevoux
(46.3801°N, 4.9476°E)
Time: 23:01:20
(UTC+00:00)

Cosmos-2242 - Pass Details

Date: 28 January 2021
Orbit: 591 x 616 km, 82.5° (Epoch: 04 March)

Event Time Altitude Azimuth Distance (km) Brightness Sun altitude
Rises 17:03:29 0° 4° (N) 2,852 6.2 -4.7°
Reaches altitude 10° 17:06:15 10° 23° (NNE) 1,949 5.2 -5.2°
Maximum altitude 17:09:21 19° 69° (ENE) 1,450 4.3 -5.7°
Drops below altitude 10° 17:12:27 10° 115° (ESE) 1,949 5.2 -6.2°
Sets 17:15:12 0° 133° (SE) 2,852 6.2 -6.6°
